Weather in Khokhlovo

Russia / Smolensk Oblast     54°41′49″N   31°50′31″E
temp.,
°C
wind,
m/s
gust,
m/s
humid.,
%
clouds,
%
prec.,
mm/h
press.,
hPa
HPBL,
m
13 april, tue
tue1300:00+9ese3691100 0.2 1022138
03:00+9ese2395100 1.2 102155
06:00+8ese2292100 0.0 102114
09:00+12se2280100 0.0 1021236
12:00+15se3568100 0.0 1020714
15:00+17s6857100 0.1 10191382
18:00+13s3880100 0.2 1019424
21:00+10sse3887100 0.2 1019207
14 april, wed
wed1400:00+10sse2690100 0.1 1018176
03:00+10sse2491100 0.1 1017119
06:00+9sse2394100 0.1 101752
09:00+10sse2591100 0.3 1017243
12:00+13sse457697 0.3 1016735
15:00+11s358580 1.4 1016305
18:00+14se236897 0.1 1015841
21:00+10sse2286100 0.1 101630
15 april, thu
thu1500:00+9ese2288100 0.0 101611
03:00+9nne2188100 0.1 101516
06:00+9ene2395100 0.8 101578
09:00+10ese369199 1.2 1016244
12:00+10ese3586100 1.1 1016296
15:00+12e4677100 1.1 1015667
18:00+12ene5977100 0.3 1015585
21:00
16 april, fri
fri1600:00+9e2894100 1.3 1016272
03:00+8ne51195100 1.3 1016388
06:00+7ne61494100 0.1 1015402
09:00+7ne71489100 1.6 1016567
12:00+11ene81178100 0.2 1016887
15:00+13ene61173100 0.2 10161292
18:00+14ene81367100 0.3 1016988
21:00+10ene71580100 1.2 1020728
17 april, sat
sat1700:00+10ene71479100 0.0 1020680
03:00+9ene71383100 0.0 1020599
06:00+7ene6138496 0.0 1022529
09:00+7ene61279100 0.0 1023571
12:00+10ene7106947 0.0 1024840
15:00+13ene795782 0.0 10241346
18:00+12ene7105332 0.0 10251066
21:00+8ene512615 0.0 1027352